Teterboro, NJ

12:16 AM EDT on September 25, 2016 (GMT -0400)
Teterboro

Weather History for KTEB - August, 2013

Change the Weather History Date:

Wednesday, August 21, 2013

  Actual Average Record
Temperature  
Mean Temperature 78 °F -  
Max Temperature 90 °F 81 °F 93 °F (2005)
Min Temperature 66 °F 63 °F 55 °F (2007)
Cooling Degree Days 13    
Growing Degree Days 28 (Base 50)    
Moisture  
Dew Point 61 °F    
Average Humidity 58    
Maximum Humidity 84    
Minimum Humidity 34    
Precipitation  
Precipitation 0.00 in - - ()
Sea Level Pressure  
Sea Level Pressure 30.11 in    
Wind  
Wind Speed 2 mph (WSW)    
Max Wind Speed 13 mph    
Max Gust Speed 16 mph    
Visibility 10 miles    
Events Rain    
Averages and records for this station are not official NWS values.
T = Trace of Precipitation, MM = Missing Value Source: NWS Daily Summary

Daily Weather History Graph

Daily Weather History Graph

Search for Another Location

Airport or City:

Trip Planner

Search our weather history database for the weather conditions in past years. The results will help you decide how hot, cold, wet, or windy it might be!

Date:

Astronomy

Aug. 21, 2013 Rise Set
Actual Time 6:12 AM EDT 7:45 PM EDT
Civil Twilight 5:43 AM EDT 8:14 PM EDT
Nautical Twilight 5:08 AM EDT 8:49 PM EDT
Astronomical Twilight 4:31 AM EDT 9:25 PM EDT
Moon 7:51 PM EDT (8/21) 6:50 AM EDT (8/21)
Length of Visible Light 14h 30m
Length of Day
13h 32m
Full, 100% of the Moon is Illuminated
Aug 21
Full
Aug 28
Last Quarter
Sep 5
New
Sep 12
First Quarter
Sep 19
Full

Hourly Weather History & Observations

Time (EDT) Temp. Heat Index Dew Point Humidity Pressure Visibility Wind Dir Wind Speed Gust Speed Precip Events Conditions
12:51 AM 75.0 °F - 66.0 °F 73% 30.12 in 10.0 mi Calm Calm - N/A   Mostly Cloudy
1:51 AM 73.9 °F - 66.0 °F 76% 30.12 in 10.0 mi North 3.5 mph - N/A   Clear
2:51 AM 73.0 °F - 64.9 °F 76% 30.12 in 10.0 mi North 3.5 mph - N/A   Clear
3:51 AM 70.0 °F - 64.9 °F 84% 30.13 in 10.0 mi Calm Calm - N/A   Clear
4:51 AM 69.1 °F - 64.0 °F 84% 30.14 in 10.0 mi Calm Calm - N/A   Clear
5:51 AM 66.9 °F - 62.1 °F 84% 30.15 in 10.0 mi Calm Calm - N/A   Clear
6:51 AM 66.9 °F - 62.1 °F 84% 30.16 in 10.0 mi Calm Calm - N/A   Clear
7:51 AM 72.0 °F - 63.0 °F 73% 30.17 in 9.0 mi Calm Calm - N/A   Clear
8:51 AM 75.9 °F - 63.0 °F 64% 30.17 in 10.0 mi Calm Calm - N/A   Clear
9:51 AM 81.0 °F 81.7 °F 61.0 °F 50% 30.17 in 10.0 mi Calm Calm - N/A   Clear
10:51 AM 84.9 °F 85.0 °F 61.0 °F 44% 30.17 in 10.0 mi Variable 4.6 mph - N/A   Clear
11:51 AM 87.1 °F 86.5 °F 59.0 °F 39% 30.16 in 10.0 mi Calm Calm - N/A   Clear
12:51 PM 88.0 °F 87.1 °F 59.0 °F 37% 30.14 in 10.0 mi SW 4.6 mph - N/A   Scattered Clouds
1:51 PM 89.1 °F 87.7 °F 57.0 °F 34% 30.12 in 10.0 mi West 5.8 mph - 0.00 in   Clear
2:51 PM 89.1 °F 88.0 °F 57.9 °F 35% 30.10 in 10.0 mi Variable 6.9 mph - N/A   Clear
3:51 PM 90.0 °F 88.8 °F 57.9 °F 34% 30.09 in 10.0 mi West 9.2 mph 16.1 mph 0.00 in Rain Light Rain
4:51 PM 88.0 °F 86.9 °F 57.9 °F 36% 30.08 in 10.0 mi WSW 12.7 mph - N/A   Clear
5:51 PM 87.1 °F 85.9 °F 57.0 °F 36% 30.06 in 10.0 mi West 6.9 mph - N/A   Clear
6:51 PM 84.0 °F 84.4 °F 61.0 °F 46% 30.06 in 10.0 mi SSW 8.1 mph - N/A   Clear
7:51 PM 81.0 °F 81.1 °F 57.9 °F 45% 30.06 in 10.0 mi SW 5.8 mph - N/A   Clear
8:51 PM 80.1 °F 80.9 °F 60.1 °F 50% 30.06 in 10.0 mi SSW 3.5 mph - N/A   Clear
9:51 PM 77.0 °F - 61.0 °F 58% 30.07 in 10.0 mi Calm Calm - N/A   Clear
10:51 PM 75.9 °F - 64.0 °F 67% 30.06 in 10.0 mi Calm Calm - N/A   Clear
11:51 PM 75.0 °F - 66.0 °F 73% 30.05 in 10.0 mi South 3.5 mph - N/A   Clear